Location: Zagreb
(45.8000°N, 16.0000°E)
Time: 12:45:42
(UTC+01:00)

Vanguard 1 Rocket - Pass Details

Date: 08 October 2020
Orbit: 656 x 4221 km, 34.3° (Epoch: 28 October)

Event Time Altitude Azimuth Distance (km) Brightness Sun altitude
Rises 00:31:44 0° 273° (W) 7,132 12.0 -50.1°
Reaches altitude 10° 00:39:53 10° 253° (WSW) 6,741 11.7 -50.2°
Enters shadow 00:44:07 13° 242° (WSW) 6,702 11.5 -50.2°
Maximum altitude 00:49:58 15° 227° (SW) 6,813 - -50.1°
Drops below altitude 10° 01:01:06 10° 201° (SSW) 7,416 - -50.0°
Sets 01:11:34 0° 182° (S) 8,258 - -49.7°
